This is the latest recevied weather packets stored in our database for station/object IU2PLZ-10. If no packets are shown the sender has not sent any weather packets the latest 10 day(s).
| Time | Temp. | Humidity | Pressure | Rain* | Wind** | Luminosity | Snow |
|---|---|---|---|---|---|---|---|
| 1777542380 | 30.56° C | 31% | 965.5 hPa | - | - | - | - |
| 1777541480 | 30.56° C | 32% | 965.4 hPa | - | - | - | - |
| 1777539679 | 30.56° C | 34% | 965.1 hPa | - | - | - | - |
| 1777538779 | 30° C | 34% | 965.2 hPa | - | - | - | - |
| 1777537879 | 31.67° C | 34% | 965.6 hPa | - | - | - | - |
| 1777536979 | 31.11° C | 35% | 965.5 hPa | - | - | - | - |
| 1777536079 | 29.44° C | 36% | 964.8 hPa | - | - | - | - |
| 1777535178 | 28.89° C | 36% | 964.7 hPa | - | - | - | - |
| 1777534278 | 28.89° C | 39% | 965.5 hPa | - | - | - | - |
| 1777533378 | 27.78° C | 39% | 965.6 hPa | - | - | - | - |
| 1777532478 | 25.56° C | 42% | 965.5 hPa | - | - | - | - |
| 1777531578 | 25° C | 40% | 964.6 hPa | - | - | - | - |
| 1777530678 | 24.44° C | 43% | 965.4 hPa | - | - | - | - |
| 1777529777 | 22.78° C | 44% | 965.4 hPa | - | - | - | - |
| 1777528877 | 21.11° C | 44% | 964.3 hPa | - | - | - | - |
| 1777527977 | 21.11° C | 45% | 965.3 hPa | - | - | - | - |
| 1777526177 | 20° C | 46% | 965.2 hPa | - | - | - | - |
| 1777525277 | 20° C | 45% | 964.9 hPa | - | - | - | - |
| 1777524376 | 20.56° C | 46% | 964.5 hPa | - | - | - | - |
| 1777523476 | 20° C | 46% | 964.4 hPa | - | - | - | - |
| 1777522576 | 20° C | 48% | 963.9 hPa | - | - | - | - |
| 1777521676 | 19.44° C | 50% | 963.6 hPa | - | - | - | - |
| 1777520776 | 19.44° C | 48% | 964 hPa | - | - | - | - |
| 1777519875 | 20.56° C | 43% | 963.9 hPa | - | - | - | - |
| 1777518975 | 20.56° C | 44% | 964 hPa | - | - | - | - |
* Rain since midnight (hover to see other rain measurements)
** Current wind speed in m/s (hover to see current wind gust speed)